Regional Weather Roundup
Issued by NWS

Home | Current Version | Previous Version | Graphics & Text | Print | Product List | Glossary Off
Versions: 1 2 3 4 5 6 7 8 9 10 11 12 13 14 15 16 17 18 19 20 21 22 23 24 25 26 27 28 29 30 31 32 33 34 35 36 37 38 39 40 41 42 43 44 45 46 47 48 49 50

000
ASUS43 KMKX 232359
RWRWI

WISCONSIN REGIONAL WEATHER ROUNDUP
NATIONAL WEATHER SERVICE MILWAUKEE/SULLIVAN WI
600 PM CST TUE JAN 23 2018

NOTE: "FAIR" INDICATES FEW OR NO CLOUDS BELOW 12,000 FEET WITH NO
SIGNIFICANT WEATHER AND/OR OBSTRUCTIONS TO VISIBILITY.

WIZ001-002-006>008-014>016-023>028-240100-
NORTHWEST WISCONSIN

CITY           SKY/WX    TMP DP  RH WIND       PRES   REMARKS
SUPERIOR ARPT  FAIR      19   8  62 S5        30.13R WCI  12
ASHLAND        FAIR      17  14  88 W5        30.13R WCI  10
6HR MIN TEMP:  17; 6HR MAX TEMP:  23;

HAYWARD        CLOUDY    20  12  71 N7        30.11R WCI  11
6HR MIN TEMP:  19; 6HR MAX TEMP:  23;

SIREN          FAIR      15   8  76 CALM      30.13R
CUMBERLAND     CLOUDY    18  10  73 N3        30.11R
RICE LAKE      CLOUDY    19  13  79 CALM      30.13R
CHETEK         CLOUDY    18  13  82 NW5       30.12R WCI  11
LADYSMITH      MOCLDY    19  15  83 NW5       30.10R WCI  12
EAU CLAIRE     MOCLDY    17  12  80 W6        30.12R WCI   9
MENOMONIE      FAIR      15  11  83 N5        30.14R WCI   8
NEW RICHMOND   FAIR      12   6  76 CALM      30.14R
OSCEOLA        FAIR      15   9  76 CALM      30.17R
$$

WIZ003>005-009-010-017-018-240100-
NORTH CENTRAL WISCONSIN

CITY           SKY/WX    TMP DP  RH WIND       PRES   REMARKS
MANITOWISH WTR FLURRIES  18  16  91 N6        30.04R WCI  10
ARBOR VITAE    FLURRIES  22  18  86 NE6       30.03R WCI  14
WOODRUFF       FLURRIES  22  18  86 NE6       30.03R WCI  14
RHINELANDER    CLOUDY    20  17  88 N6        30.03R WCI  12
6HR MIN TEMP:  20; 6HR MAX TEMP:  21;

EAGLE RIVER    FLURRIES  17  11  80 N5        30.03R WCI   9
6HR MIN TEMP:  17; 6HR MAX TEMP:  19;

LAND O LAKES   FLURRIES  16  12  86 N6        30.04R WCI   7
PHILLIPS       FLURRIES  19  16  89 NW3       30.05R
6HR MIN TEMP:  19; 6HR MAX TEMP:  20;

TOMAHAWK       FLURRIES  20  16  86 NW6       30.04R WCI  12
MEDFORD        CLOUDY    20  16  83 NW6       30.04R WCI  13
MERRILL        FLURRIES  21  17  85 N5        30.06R WCI  15
6HR MIN TEMP:  21; 6HR MAX TEMP:  24;

$$

WIZ029-030-035-036-043>047-240100-
CENTRAL WISCONSIN

CITY           SKY/WX    TMP DP  RH WIND       PRES   REMARKS
WAUSAU         CLOUDY    22  17  81 N8        30.04R WCI  12
6HR MIN TEMP:  22; 6HR MAX TEMP:  25;

MOSINEE        CLOUDY    23  19  86 NW7       30.06R WCI  15
MARSHFIELD     CLOUDY    21  16  81 NW7       30.05R WCI  12
6HR MIN TEMP:  21; 6HR MAX TEMP:  23;

STEVENS POINT  CLOUDY    23  18  82 NW7       30.06R WCI  14
WAUPACA        CLOUDY    29  20  69 W8        30.06R WCI  21
WAUTOMA        NOT AVBL
WISC RAPIDS    CLOUDY    23  17  78 NW7       30.08R WCI  15
6HR MIN TEMP:  23; 6HR MAX TEMP:  25;

CAMP DOUGLAS   NOT AVBL
$$

WIZ011>013-019>022-031-037>040-048>050-240100-
NORTHEAST WISCONSIN

CITY           SKY/WX    TMP DP  RH WIND       PRES   REMARKS
ANTIGO         MOCLDY    18  15  86 N8        30.02R WCI   8
SHAWANO        MOCLDY    26  19  74 CALM      30.05R
6HR MIN TEMP:  26; 6HR MAX TEMP:  31;

OCONTO         FAIR      24  18  77 N3        30.04R
STURGEON BAY   CLOUDY    23  16  74 NW15      30.04R WCI  10
6HR MIN TEMP:  23; 6HR MAX TEMP:  27;

GREEN BAY      MOCLDY    27  20  75 NW7       30.06R WCI  19
6HR MIN TEMP:  27; 6HR MAX TEMP:  29;

MANITOWOC      FAIR      25  20  81 NW7       30.05R WCI  17
6HR MIN TEMP:  25; 6HR MAX TEMP:  29; 6HR PCP: TRACE;

APPLETON       CLOUDY    27  18  69 NW8       30.03R WCI  18
CLINTONVILLE   FAIR      27  18  69 N6        30.05R WCI  20
OSHKOSH        CLOUDY    28  21  75 NW5       30.05R WCI  23
6HR MIN TEMP:  27; 6HR MAX TEMP:  28;

$$

WIZ032>034-041-042-053>061-240100-
SOUTHWEST WISCONSIN

CITY           SKY/WX    TMP DP  RH WIND       PRES   REMARKS
LA CROSSE      CLOUDY    24  18  77 N8        30.14R WCI  15
6HR MIN TEMP:  24; 6HR MAX TEMP:  25;

SPARTA         CLOUDY    22  20  90 NW7       30.12R WCI  14
VIROQUA        CLOUDY    22  20  95 NW10      30.08R WCI  11
6HR MIN TEMP:  22; 6HR MAX TEMP:  23;

BOSCOBEL       CLOUDY    26  19  74 W6        30.13R WCI  19
6HR MIN TEMP:  25; 6HR MAX TEMP:  28;

PRAIRIE DU CHI CLOUDY    25  18  76 N6        30.13R WCI  18
PLATTEVILLE    CLOUDY    25  24  95 W12       30.10R WCI  14
$$

WIZ056-057-062-063-064-067-068-240100-
SOUTH CENTRAL WISCONSIN

CITY           SKY/WX    TMP DP  RH WIND       PRES   REMARKS
REEDSBURG      CLOUDY    24  21  86 N10       30.08R WCI  14
BARABOO/DELLS  CLOUDY    24  21  87 NW10      30.07R WCI  14
LONE ROCK      NOT AVBL
MINERAL POINT  CLOUDY    28  27  93 W7        30.08R WCI  21
MADISON        CLOUDY    25  21  85 NW6       30.08R WCI  18
6HR MIN TEMP:  25; 6HR MAX TEMP:  27; 6HR PCP: TRACE;

MIDDLETON      CLOUDY    28  23  84 N6        30.08R WCI  21
WATERTOWN      CLOUDY    26  24  90 NW9       30.06R WCI  17
MONROE         CLOUDY    28  23  80 NW9       30.06R WCI  20
JANESVILLE     CLOUDY    28  28 100 N7        30.07R WCI  21
$$

WIZ051-052-058>065-066-070>072-240100-
SOUTHEAST WISCONSIN

CITY           SKY/WX    TMP DP  RH WIND       PRES   REMARKS
MILWAUKEE      CLOUDY    30  22  72 NW9       30.05R WCI  22
6HR MIN TEMP:  29; 6HR MAX TEMP:  30;

WAUKESHA       CLOUDY    25  21  86 NW10      30.06R WCI  15
MILWAUKEE/TIMM CLOUDY    28  19  69 NW8       30.06R WCI  20
RACINE         CLOUDY    29  24  82 NW6       30.07R WCI  23
6HR MIN TEMP:  29; 6HR MAX TEMP:  29;

BURLINGTON     CLOUDY    27  22  82 NW8       30.06R WCI  19
KENOSHA        CLOUDY    28  23  81 NW9       30.06R WCI  19
6HR MIN TEMP:  28; 6HR MAX TEMP:  29;

FOND DU LAC    CLOUDY    28  20  71 NW6       30.06R WCI  22
6HR MIN TEMP:  28; 6HR MAX TEMP:  29;

SHEBOYGAN      CLOUDY    28  21  75 NW8       30.04R WCI  20
6HR MIN TEMP:  27; 6HR MAX TEMP:  29;

WEST BEND      CLOUDY    28  23  80 NW8       30.04R WCI  20
JUNEAU         CLOUDY    26  21  81 W5        30.07R WCI  21
$$

LSZ147-162-240100-
LAKE SUPERIOR

STATION/POSITION TIME  TEMP    WIND        PRES    WAVE
                       AIR SEA DIR/SP/G            HT/PER
                 (UTC) (F)     (DEG/KT/KT) (MB)    (FT/S)
DEVILS ISLAND    2300   24        CALM     1020.7R
SAXON HARBOR     2340   23      70/  5/ 12 1019.6R
$$

LMZ867-665-643>646-240100-
LAKE MICHIGAN

STATION/POSITION TIME  TEMP    WIND        PRES    WAVE
                       AIR SEA DIR/SP/G            HT/PER
                 (UTC) (F)     (DEG/KT/KT) (MB)    (FT/S)
NORTHPORT PIER   2340   22     320/  8/ 11 1016.3R
KEWAUNEE LAKESHO 2330   26     320/  7/ 12 1015.8R
SHEBOYGAN LAKESH 2300   29     320/ 12/ 14 1017.1R
PORT WASHINGTON  2330   29     300/  5/  9 1018.3R
MILWAUKEE LAKESH 2330   29     330/  8/ 11   N/A
KENOSHA   LAKESH 2300   28     310/  6/ 11 1016.9
$$

TC  - TEMPERATURE IN CELSIUS
VSB - VISIBILITY IN STATUTE MILES
WCI - WIND CHILL INDEX
HX  - HEAT INDEX





USA.gov is the U.S. government's official web portal to all federal, state and local government web resources and services.